Time,TemperatureF,DewpointF,PressureIn,WindDirection,WindDirectionDegrees,WindSpeedMPH,WindSpeedGustMPH,Humidity,HourlyPrecipIn,Conditions,Clouds,dailyrainin,SoftwareType,DateUTC
2013-02-11 00:01:00,33.0,33.0,-100.00,North,11,1.0,3.0,100,-99.99,,,-99.99,,2013-02-11 08:01:00,
2013-02-11 00:11:00,33.0,33.0,-100.00,NW,326,1.0,3.0,100,-99.99,,,-99.99,,2013-02-11 08:11:00,
2013-02-11 00:21:00,33.0,33.0,-100.00,NW,320,2.0,4.0,100,-99.99,,,-99.99,,2013-02-11 08:21:00,
2013-02-11 00:31:00,33.0,33.0,-100.00,WNW,283,1.0,3.0,100,-99.99,,,-99.99,,2013-02-11 08:31:00,
2013-02-11 00:42:00,33.0,33.0,-100.00,WNW,292,2.0,3.0,100,-99.99,,,-99.99,,2013-02-11 08:42:00,
2013-02-11 00:52:00,33.0,33.0,-100.00,WNW,291,2.0,3.0,100,-99.99,,,-99.99,,2013-02-11 08:52:00,
2013-02-11 01:01:00,33.0,33.0,-100.00,NW,307,2.0,3.0,99,-99.99,,,-99.99,,2013-02-11 09:01:00,
2013-02-11 01:12:00,33.0,32.0,-100.00,NW,313,2.0,4.0,97,-99.99,,,-99.99,,2013-02-11 09:12:00,
2013-02-11 01:21:00,33.0,32.0,-100.00,NNW,338,2.0,4.0,97,-99.99,,,-99.99,,2013-02-11 09:21:00,
2013-02-11 01:31:00,33.0,32.0,-100.00,NNW,329,1.0,3.0,98,-99.99,,,-99.99,,2013-02-11 09:31:00,
2013-02-11 01:41:00,33.0,33.0,-100.00,NW,326,1.0,4.0,99,-99.99,,,-99.99,,2013-02-11 09:41:00,
2013-02-11 01:51:00,33.0,33.0,-100.00,NNW,332,2.0,5.0,99,-99.99,,,-99.99,,2013-02-11 09:51:00,
2013-02-11 02:01:00,33.0,33.0,-100.00,NNW,338,2.0,4.0,99,-99.99,,,-99.99,,2013-02-11 10:01:00,
2013-02-11 02:11:00,33.0,33.0,-100.00,NW,313,1.0,4.0,99,-99.99,,,-99.99,,2013-02-11 10:11:00,
2013-02-11 02:21:00,33.0,32.0,-100.00,NW,323,2.0,6.0,97,-99.99,,,-99.99,,2013-02-11 10:21:00,
2013-02-11 02:31:00,33.0,32.0,-100.00,NW,309,2.0,6.0,95,-99.99,,,-99.99,,2013-02-11 10:31:00,
2013-02-11 02:41:00,33.0,32.0,-100.00,WNW,303,1.0,3.0,96,-99.99,,,-99.99,,2013-02-11 10:41:00,
2013-02-11 02:51:00,33.0,32.0,-100.00,NW,321,2.0,4.0,96,-99.99,,,-99.99,,2013-02-11 10:51:00,
2013-02-11 03:01:00,33.0,32.0,-100.00,NNW,345,2.0,5.0,96,-99.99,,,-99.99,,2013-02-11 11:01:00,
2013-02-11 03:11:00,33.0,32.0,-100.00,North,354,2.0,5.0,96,-99.99,,,-99.99,,2013-02-11 11:11:00,
2013-02-11 03:22:00,32.0,31.0,-100.00,North,11,2.0,4.0,97,-99.99,,,-99.99,,2013-02-11 11:22:00,
2013-02-11 03:32:00,32.0,31.0,-100.00,WNW,288,1.0,3.0,97,-99.99,,,-99.99,,2013-02-11 11:32:00,
2013-02-11 03:42:00,32.0,30.0,-100.00,NW,305,2.0,3.0,93,-99.99,,,-99.99,,2013-02-11 11:42:00,
2013-02-11 03:52:00,32.0,30.0,-100.00,North,8,2.0,4.0,92,-99.99,,,-99.99,,2013-02-11 11:52:00,
2013-02-11 04:02:00,31.0,30.0,-100.00,NNE,13,1.0,2.0,96,-99.99,,,-99.99,,2013-02-11 12:02:00,
2013-02-11 04:12:00,31.0,30.0,-100.00,NNW,346,1.0,2.0,97,-99.99,,,-99.99,,2013-02-11 12:12:00,
2013-02-11 04:22:00,31.0,30.0,-100.00,NNE,27,1.0,3.0,96,-99.99,,,-99.99,,2013-02-11 12:22:00,
2013-02-11 04:31:00,31.0,30.0,-100.00,NNE,16,1.0,4.0,95,-99.99,,,-99.99,,2013-02-11 12:31:00,
2013-02-11 04:42:00,30.0,29.0,-100.00,NNE,29,1.0,3.0,95,-99.99,,,-99.99,,2013-02-11 12:42:00,
2013-02-11 04:52:00,30.0,28.0,-100.00,North,359,2.0,3.0,94,-99.99,,,-99.99,,2013-02-11 12:52:00,
2013-02-11 05:01:00,30.0,28.0,-100.00,North,356,3.0,3.0,94,-99.99,,,-99.99,,2013-02-11 13:01:00,
2013-02-11 05:11:00,30.0,29.0,-100.00,North,357,3.0,4.0,96,-99.99,,,-99.99,,2013-02-11 13:11:00,
2013-02-11 05:21:00,29.0,28.0,-100.00,NNE,22,2.0,4.0,97,-99.99,,,-99.99,,2013-02-11 13:21:00,
2013-02-11 05:32:00,30.0,28.0,-100.00,NNE,21,2.0,4.0,94,-99.99,,,-99.99,,2013-02-11 13:32:00,
2013-02-11 05:41:00,30.0,28.0,-100.00,NNE,15,1.0,2.0,94,-99.99,,,-99.99,,2013-02-11 13:41:00,
2013-02-11 05:51:00,30.0,28.0,-100.00,East,83,1.0,4.0,94,-99.99,,,-99.99,,2013-02-11 13:51:00,
2013-02-11 06:01:00,30.0,28.0,-100.00,East,83,1.0,4.0,94,-99.99,,,-99.99,,2013-02-11 14:01:00,
2013-02-11 06:11:00,29.0,27.0,-100.00,NNE,21,2.0,5.0,94,-99.99,,,-99.99,,2013-02-11 14:11:00,
2013-02-11 06:21:00,30.0,28.0,-100.00,North,357,3.0,5.0,94,-99.99,,,-99.99,,2013-02-11 14:21:00,
2013-02-11 06:32:00,30.0,28.0,-100.00,North,357,3.0,5.0,94,-99.99,,,-99.99,,2013-02-11 14:32:00,
2013-02-11 06:42:00,30.0,28.0,-100.00,North,7,2.0,4.0,91,-99.99,,,-99.99,,2013-02-11 14:42:00,
2013-02-11 06:52:00,30.0,27.0,-100.00,NNE,26,1.0,2.0,90,-99.99,,,-99.99,,2013-02-11 14:52:00,
2013-02-11 07:01:00,29.0,26.0,-100.00,North,353,2.0,4.0,90,-99.99,,,-99.99,,2013-02-11 15:01:00,
2013-02-11 07:11:00,30.0,28.0,-100.00,NNE,25,0.0,1.0,91,-99.99,,,-99.99,,2013-02-11 15:11:00,
2013-02-11 07:22:00,29.0,26.0,-100.00,ESE,103,1.0,3.0,90,-99.99,,,-99.99,,2013-02-11 15:22:00,
2013-02-11 07:31:00,30.0,27.0,-100.00,East,98,0.0,2.0,89,-99.99,,,-99.99,,2013-02-11 15:31:00,
2013-02-11 07:42:00,32.0,28.0,-100.00,West,280,0.0,2.0,86,-99.99,,,-99.99,,2013-02-11 15:42:00,
2013-02-11 07:51:00,34.0,30.0,-100.00,East,95,0.0,1.0,84,-99.99,,,-99.99,,2013-02-11 15:51:00,
2013-02-11 08:01:00,35.0,29.0,-100.00,East,87,0.0,2.0,80,-99.99,,,-99.99,,2013-02-11 16:01:00,
2013-02-11 08:11:00,35.0,29.0,-100.00,East,87,0.0,2.0,80,-99.99,,,-99.99,,2013-02-11 16:11:00,
2013-02-11 08:21:00,35.0,30.0,-100.00,East,96,1.0,3.0,83,-99.99,,,-99.99,,2013-02-11 16:21:00,
2013-02-11 08:31:00,34.0,30.0,-100.00,NE,53,1.0,3.0,84,-99.99,,,-99.99,,2013-02-11 16:31:00,
2013-02-11 08:42:00,34.0,30.0,-100.00,ENE,77,2.0,3.0,84,-99.99,,,-99.99,,2013-02-11 16:42:00,
2013-02-11 08:52:00,34.0,30.0,-100.00,ENE,69,1.0,3.0,86,-99.99,,,-99.99,,2013-02-11 16:52:00,
2013-02-11 09:01:00,34.0,31.0,-100.00,ENE,61,2.0,4.0,88,-99.99,,,-99.99,,2013-02-11 17:01:00,
2013-02-11 09:11:00,33.0,30.0,-100.00,NE,46,2.0,4.0,88,-99.99,,,-99.99,,2013-02-11 17:11:00,
2013-02-11 09:21:00,33.0,30.0,-100.00,NNE,29,1.0,3.0,88,-99.99,,,-99.99,,2013-02-11 17:21:00,
2013-02-11 09:31:00,35.0,32.0,-100.00,NE,54,2.0,4.0,90,-99.99,,,-99.99,,2013-02-11 17:31:00,
2013-02-11 09:41:00,37.0,34.0,-100.00,North,9,1.0,4.0,88,-99.99,,,-99.99,,2013-02-11 17:41:00,
2013-02-11 09:52:00,37.0,33.0,-100.00,SSW,201,1.0,4.0,85,-99.99,,,-99.99,,2013-02-11 17:52:00,
2013-02-11 10:01:00,36.0,33.0,-100.00,NW,326,2.0,5.0,87,-99.99,,,-99.99,,2013-02-11 18:01:00,
2013-02-11 10:11:00,37.0,32.0,-100.00,NNW,346,1.0,4.0,83,-99.99,,,-99.99,,2013-02-11 18:11:00,
2013-02-11 10:21:00,36.0,33.0,-100.00,NNW,335,3.0,5.0,88,-99.99,,,-99.99,,2013-02-11 18:21:00,
2013-02-11 10:31:00,36.0,33.0,-100.00,North,5,1.0,3.0,87,-99.99,,,-99.99,,2013-02-11 18:31:00,
2013-02-11 10:41:00,37.0,33.0,-100.00,North,358,2.0,7.0,84,-99.99,,,-99.99,,2013-02-11 18:41:00,
2013-02-11 10:50:00,39.0,33.0,-100.00,WNW,299,2.0,6.0,78,-99.99,,,-99.99,,2013-02-11 18:50:00,
2013-02-11 10:52:00,37.0,32.0,-100.00,North,351,2.0,4.0,81,-99.99,,,-99.99,,2013-02-11 18:52:00,
2013-02-11 11:01:00,37.0,32.0,-100.00,North,5,2.0,5.0,83,-99.99,,,-99.99,,2013-02-11 19:01:00,
2013-02-11 11:11:00,37.0,32.0,-100.00,NNW,343,2.0,3.0,82,-99.99,,,-99.99,,2013-02-11 19:11:00,
2013-02-11 11:21:00,39.0,33.0,-100.00,WNW,299,2.0,6.0,78,-99.99,,,-99.99,,2013-02-11 19:21:00,
2013-02-11 11:31:00,39.0,33.0,-100.00,WNW,299,2.0,6.0,78,-99.99,,,-99.99,,2013-02-11 19:31:00,
2013-02-11 11:41:00,39.0,33.0,-100.00,WNW,299,2.0,6.0,78,-99.99,,,-99.99,,2013-02-11 19:41:00,
2013-02-11 12:01:00,39.0,31.0,-100.00,WNW,283,2.0,7.0,73,-99.99,,,-99.99,,2013-02-11 20:01:00,
2013-02-11 12:11:00,40.0,30.0,-100.00,NNW,332,2.0,7.0,67,-99.99,,,-99.99,,2013-02-11 20:11:00,
2013-02-11 12:21:00,42.0,32.0,-100.00,NW,321,3.0,6.0,68,-99.99,,,-99.99,,2013-02-11 20:21:00,
2013-02-11 12:31:00,42.0,30.0,-100.00,West,277,2.0,5.0,63,-99.99,,,-99.99,,2013-02-11 20:31:00,
2013-02-11 12:41:00,41.0,28.0,-100.00,NNE,28,1.0,4.0,60,-99.99,,,-99.99,,2013-02-11 20:41:00,
2013-02-11 12:52:00,43.0,32.0,-100.00,WNW,287,3.0,7.0,65,-99.99,,,-99.99,,2013-02-11 20:52:00,
2013-02-11 13:02:00,43.0,31.0,-100.00,West,268,3.0,8.0,63,-99.99,,,-99.99,,2013-02-11 21:02:00,
2013-02-11 13:11:00,42.0,31.0,-100.00,West,274,3.0,10.0,64,-99.99,,,-99.99,,2013-02-11 21:11:00,
2013-02-11 13:21:00,42.0,31.0,-100.00,WNW,298,2.0,5.0,66,-99.99,,,-99.99,,2013-02-11 21:21:00,
2013-02-11 13:31:00,42.0,30.0,-100.00,NW,308,3.0,7.0,63,-99.99,,,-99.99,,2013-02-11 21:31:00,
2013-02-11 13:41:00,42.0,31.0,-100.00,WNW,290,2.0,6.0,66,-99.99,,,-99.99,,2013-02-11 21:41:00,
2013-02-11 13:51:00,43.0,32.0,-100.00,WNW,303,4.0,10.0,64,-99.99,,,-99.99,,2013-02-11 21:51:00,
2013-02-11 14:01:00,41.0,30.0,-100.00,North,354,3.0,5.0,64,-99.99,,,-99.99,,2013-02-11 22:01:00,
2013-02-11 14:11:00,40.0,31.0,-100.00,NNE,19,5.0,12.0,69,-99.99,,,-99.99,,2013-02-11 22:11:00,
2013-02-11 14:21:00,38.0,27.0,-100.00,NNE,31,9.0,14.0,65,-99.99,,,-99.99,,2013-02-11 22:21:00,
2013-02-11 14:31:00,38.0,27.0,-100.00,NNE,31,8.0,15.0,64,-99.99,,,-99.99,,2013-02-11 22:31:00,
2013-02-11 14:41:00,38.0,27.0,-100.00,NE,39,5.0,10.0,63,-99.99,,,-99.99,,2013-02-11 22:41:00,
2013-02-11 14:52:00,39.0,26.0,-100.00,ENE,60,5.0,10.0,59,-99.99,,,-99.99,,2013-02-11 22:52:00,
2013-02-11 15:01:00,39.0,26.0,-100.00,ENE,65,4.0,7.0,59,-99.99,,,-99.99,,2013-02-11 23:01:00,
2013-02-11 15:11:00,39.0,25.0,-100.00,NE,36,4.0,8.0,56,-99.99,,,-99.99,,2013-02-11 23:11:00,
2013-02-11 15:21:00,40.0,22.0,-100.00,NE,35,4.0,9.0,49,-99.99,,,-99.99,,2013-02-11 23:21:00,
2013-02-11 15:31:00,40.0,22.0,-100.00,NE,48,3.0,6.0,48,-99.99,,,-99.99,,2013-02-11 23:31:00,
2013-02-11 15:41:00,41.0,22.0,-100.00,NE,46,3.0,5.0,47,-99.99,,,-99.99,,2013-02-11 23:41:00,
2013-02-11 15:52:00,41.0,21.0,-100.00,NE,47,5.0,8.0,45,-99.99,,,-99.99,,2013-02-11 23:52:00,
2013-02-11 16:01:00,41.0,21.0,-100.00,NE,47,5.0,8.0,45,-99.99,,,-99.99,,2013-02-12 00:01:00,
2013-02-11 16:11:00,41.0,21.0,-100.00,NE,37,5.0,10.0,45,-99.99,,,-99.99,,2013-02-12 00:11:00,
2013-02-11 16:21:00,41.0,20.0,-100.00,NE,36,4.0,8.0,43,-99.99,,,-99.99,,2013-02-12 00:21:00,
2013-02-11 16:31:00,41.0,20.0,-100.00,NE,42,5.0,11.0,42,-99.99,,,-99.99,,2013-02-12 00:31:00,
2013-02-11 16:42:00,41.0,17.0,-100.00,NNE,23,6.0,13.0,38,-99.99,,,-99.99,,2013-02-12 00:42:00,
2013-02-11 16:51:00,41.0,13.0,-100.00,NNE,29,8.0,12.0,32,-99.99,,,-99.99,,2013-02-12 00:51:00,
2013-02-11 17:01:00,40.0,15.0,-100.00,NNE,23,7.0,12.0,35,-99.99,,,-99.99,,2013-02-12 01:01:00,
2013-02-11 17:11:00,40.0,15.0,-100.00,North,11,5.0,13.0,36,-99.99,,,-99.99,,2013-02-12 01:11:00,
2013-02-11 17:21:00,40.0,15.0,-100.00,NNE,24,4.0,9.0,36,-99.99,,,-99.99,,2013-02-12 01:21:00,
2013-02-11 17:31:00,40.0,15.0,-100.00,NNE,24,4.0,9.0,36,-99.99,,,-99.99,,2013-02-12 01:31:00,
2013-02-11 17:41:00,39.0,25.0,-100.00,NW,309,4.0,5.0,56,-99.99,,,-99.99,,2013-02-12 01:41:00,
2013-02-11 17:51:00,39.0,24.0,-100.00,NW,314,5.0,6.0,54,-99.99,,,-99.99,,2013-02-12 01:51:00,
2013-02-11 18:01:00,38.0,22.0,-100.00,NW,309,5.0,7.0,52,-99.99,,,-99.99,,2013-02-12 02:01:00,
2013-02-11 18:11:00,39.0,22.0,-100.00,NW,312,5.0,6.0,51,-99.99,,,-99.99,,2013-02-12 02:11:00,
2013-02-11 18:21:00,39.0,23.0,-100.00,NW,318,4.0,5.0,53,-99.99,,,-99.99,,2013-02-12 02:21:00,
2013-02-11 18:31:00,38.0,24.0,-100.00,WNW,292,4.0,5.0,56,-99.99,,,-99.99,,2013-02-12 02:31:00,
2013-02-11 18:41:00,39.0,25.0,-100.00,WNW,301,3.0,5.0,57,-99.99,,,-99.99,,2013-02-12 02:41:00,
2013-02-11 18:52:00,38.0,25.0,-100.00,North,3,1.0,4.0,58,-99.99,,,-99.99,,2013-02-12 02:52:00,
2013-02-11 19:01:00,37.0,25.0,-100.00,NE,53,0.0,2.0,61,-99.99,,,-99.99,,2013-02-12 03:01:00,
2013-02-11 19:11:00,36.0,24.0,-100.00,NNE,22,0.0,1.0,62,-99.99,,,-99.99,,2013-02-12 03:11:00,
2013-02-11 19:21:00,35.0,23.0,-100.00,ENE,59,0.0,1.0,61,-99.99,,,-99.99,,2013-02-12 03:21:00,
2013-02-11 19:31:00,36.0,23.0,-100.00,NNE,14,2.0,3.0,58,-99.99,,,-99.99,,2013-02-12 03:31:00,
2013-02-11 19:41:00,36.0,23.0,-100.00,NNW,347,2.0,3.0,58,-99.99,,,-99.99,,2013-02-12 03:41:00,
2013-02-11 19:51:00,36.0,19.0,-100.00,North,357,2.0,3.0,50,-99.99,,,-99.99,,2013-02-12 03:51:00,
2013-02-11 20:01:00,34.0,19.0,-100.00,NNW,342,4.0,5.0,54,-99.99,,,-99.99,,2013-02-12 04:01:00,
2013-02-11 20:11:00,35.0,16.0,-100.00,North,10,2.0,5.0,45,-99.99,,,-99.99,,2013-02-12 04:11:00,
2013-02-11 20:21:00,35.0,15.0,-100.00,NNE,29,2.0,5.0,43,-99.99,,,-99.99,,2013-02-12 04:21:00,
2013-02-11 20:31:00,35.0,15.0,-100.00,NNE,29,2.0,5.0,43,-99.99,,,-99.99,,2013-02-12 04:31:00,
2013-02-11 20:41:00,34.0,12.0,-100.00,North,360,4.0,5.0,40,-99.99,,,-99.99,,2013-02-12 04:41:00,
2013-02-11 20:51:00,34.0,13.0,-100.00,North,7,3.0,4.0,41,-99.99,,,-99.99,,2013-02-12 04:51:00,
2013-02-11 21:01:00,33.0,13.0,-100.00,North,357,5.0,6.0,43,-99.99,,,-99.99,,2013-02-12 05:01:00,
2013-02-11 21:11:00,34.0,12.0,-100.00,North,355,4.0,6.0,39,-99.99,,,-99.99,,2013-02-12 05:11:00,
2013-02-11 21:21:00,32.0,13.0,-100.00,NNE,22,4.0,6.0,45,-99.99,,,-99.99,,2013-02-12 05:21:00,
2013-02-11 21:31:00,32.0,14.0,-100.00,NNE,18,4.0,7.0,46,-99.99,,,-99.99,,2013-02-12 05:31:00,
2013-02-11 21:41:00,32.0,13.0,-100.00,North,3,6.0,9.0,44,-99.99,,,-99.99,,2013-02-12 05:41:00,
2013-02-11 21:52:00,32.0,14.0,-100.00,North,6,5.0,8.0,46,-99.99,,,-99.99,,2013-02-12 05:52:00,
2013-02-11 22:01:00,31.0,13.0,-100.00,North,5,6.0,8.0,47,-99.99,,,-99.99,,2013-02-12 06:01:00,
2013-02-11 22:12:00,31.0,12.0,-100.00,North,6,6.0,7.0,45,-99.99,,,-99.99,,2013-02-12 06:12:00,
2013-02-11 22:21:00,32.0,12.0,-100.00,NNE,22,4.0,8.0,43,-99.99,,,-99.99,,2013-02-12 06:21:00,
2013-02-11 22:31:00,32.0,12.0,-100.00,NNE,22,4.0,8.0,43,-99.99,,,-99.99,,2013-02-12 06:31:00,
2013-02-11 22:42:00,33.0,8.0,-100.00,North,2,5.0,9.0,34,-99.99,,,-99.99,,2013-02-12 06:42:00,
2013-02-11 22:51:00,36.0,6.0,-100.00,North,4,6.0,10.0,28,-99.99,,,-99.99,,2013-02-12 06:51:00,
2013-02-11 23:01:00,35.0,7.0,-100.00,NNE,16,3.0,7.0,31,-99.99,,,-99.99,,2013-02-12 07:01:00,
2013-02-11 23:11:00,33.0,8.0,-100.00,NE,49,2.0,5.0,34,-99.99,,,-99.99,,2013-02-12 07:11:00,
2013-02-11 23:21:00,34.0,7.0,-100.00,North,359,4.0,6.0,31,-99.99,,,-99.99,,2013-02-12 07:21:00,
2013-02-11 23:31:00,34.0,7.0,-100.00,North,356,5.0,8.0,31,-99.99,,,-99.99,,2013-02-12 07:31:00,
2013-02-11 23:41:00,33.0,6.0,-100.00,NNW,348,4.0,7.0,32,-99.99,,,-99.99,,2013-02-12 07:41:00,
2013-02-11 23:51:00,33.0,6.0,-100.00,NNW,339,5.0,7.0,31,-99.99,,,-99.99,,2013-02-12 07:51:00,